| time (UTC) | temp F | wind direction | speed knots | gust knots | rain 1hr in | rain 24hr in | rain mn in | humidity % | barometer mb |
| 20260508093603 | 59 | 70 | 2.6 | 7.8 | 0.00 | 0.00 | 0.00 | 58 | 1016.6 |
| 20260508090604 | 57 | 106 | 0.9 | 6.1 | 0.00 | 0.00 | 0.00 | 66 | 1016.4 |
| 20260508090104 | 57 | 151 | 2.6 | 6.1 | 0.00 | 0.00 | 0.00 | 64 | 1016.6 |
| 20260508083603 | 56 | 113 | 2.6 | 6.1 | 0.00 | 0.00 | 0.00 | 68 | 1016.6 |
| 20260508083104 | 56 | 171 | 1.7 | 5.2 | 0.00 | 0.00 | 0.00 | 71 | 1016.5 |
| 20260508080104 | 55 | 323 | 0.9 | 4.3 | 0.00 | 0.00 | 0.00 | 78 | 1016.4 |
| 20260508070604 | 51 | 146 | 0.9 | 4.3 | 0.00 | 0.00 | 0.00 | 92 | 1016.1 |
| 20260508070105 | 51 | 151 | 1.7 | 5.2 | 0.00 | 0.00 | 0.00 | 93 | 1016.1 |
| 20260508063603 | 49 | 87 | 0.9 | 2.6 | 0.00 | 0.00 | 0.00 | 100 | 1016.0 |
| 20260508063104 | 48 | 87 | 0.0 | 1.7 | 0.00 | 0.00 | 0.00 | 100 | 1015.9 |
| 20260508060104 | 46 | 86 | 0.0 | 0.0 | 0.00 | 0.00 | 0.00 | 100 | 1015.7 |
| 20260508053603 | 45 | 86 | 0.0 | 0.0 | 0.00 | 0.00 | 0.00 | 100 | 1015.7 |
| 20260508050104 | 45 | 87 | 0.0 | 0.0 | 0.00 | 0.00 | 0.00 | 100 | 1015.5 |
| 20260508043105 | 44 | 86 | 0.0 | 0.0 | 0.00 | 0.00 | 0.00 | 100 | 1015.4 |
| 20260508040103 | 44 | 87 | 0.0 | 0.0 | 0.00 | 0.00 | 0.00 | 100 | 1015.3 |
| 20260508033604 | 44 | 86 | 0.0 | 0.0 | 0.00 | 0.00 | 0.00 | 100 | 1015.3 |
| 20260508023104 | 43 | 86 | 0.0 | 0.0 | 0.00 | 0.00 | 0.00 | 100 | 1015.3 |
| 20260508020104 | 45 | 87 | 0.0 | 0.0 | 0.00 | 0.00 | 0.00 | 96 | 1015.2 |
| 20260508010603 | 47 | 86 | 0.0 | 0.0 | 0.00 | 0.00 | 0.00 | 99 | 1015.3 |
| 20260508003603 | 47 | 86 | 0.0 | 0.0 | 0.00 | 0.00 | 0.00 | 98 | 1015.3 |
| 20260507233103 | 48 | 86 | 0.9 | 1.7 | 0.00 | 0.00 | 0.00 | 96 | 1015.3 |
| 20260507230104 | 48 | 84 | 0.0 | 0.0 | 0.00 | 0.00 | 0.00 | 97 | 1015.4 |
| 20260507210604 | 49 | 84 | 0.0 | 0.0 | 0.00 | 0.00 | 0.00 | 93 | 1015.0 |
| 20260507210103 | 49 | 83 | 0.0 | 0.0 | 0.00 | 0.00 | 0.00 | 93 | 1014.8 |
| 20260507200604 | 50 | 83 | 0.9 | 1.7 | 0.00 | 0.00 | 0.00 | 92 | 1014.6 |
| 20260507200104 | 50 | 84 | 0.9 | 1.7 | 0.00 | 0.00 | 0.00 | 91 | 1014.6 |
| 20260507193603 | 51 | 84 | 0.0 | 0.0 | 0.00 | 0.00 | 0.00 | 90 | 1014.4 |
| 20260507193104 | 51 | 84 | 0.0 | 0.9 | 0.00 | 0.00 | 0.00 | 88 | 1014.4 |
| 20260507190105 | 51 | 237 | 0.0 | 4.3 | 0.00 | 0.00 | 0.00 | 85 | 1014.4 |
| 20260507183603 | 52 | 164 | 0.9 | 2.6 | 0.00 | 0.00 | 0.00 | 81 | 1014.3 |
| 20260507180603 | 53 | 142 | 0.9 | 2.6 | 0.00 | 0.00 | 0.00 | 78 | 1013.9 |
| 20260507173104 | 55 | 88 | 0.9 | 5.2 | 0.00 | 0.00 | 0.00 | 65 | 1013.9 |
| 20260507170603 | 56 | 78 | 1.7 | 4.3 | 0.00 | 0.00 | 0.00 | 67 | 1013.9 |
| 20260507163604 | 57 | 76 | 0.9 | 4.3 | 0.00 | 0.00 | 0.00 | 60 | 1013.9 |
| 20260507143603 | 60 | 25 | 2.6 | 6.1 | 0.00 | 0.00 | 0.00 | 50 | 1014.4 |
| 20260507140104 | 60 | 121 | 2.6 | 7.8 | 0.00 | 0.00 | 0.00 | 52 | 1014.8 |
| 20260507133103 | 59 | 23 | 0.9 | 7.0 | 0.00 | 0.00 | 0.00 | 53 | 1014.8 |
| 20260507130603 | 59 | 122 | 1.7 | 8.7 | 0.00 | 0.00 | 0.00 | 57 | 1014.8 |
| 20260507120104 | 58 | 185 | 2.6 | 10.4 | 0.00 | 0.00 | 0.00 | 61 | 1015.3 |
| 20260507113605 | 56 | 146 | 2.6 | 7.8 | 0.00 | 0.00 | 0.00 | 69 | 1015.3 |
| 20260507110603 | 54 | 123 | 3.5 | 7.8 | 0.00 | 0.00 | 0.00 | 69 | 1015.5 |
| 20260507103104 | 53 | 176 | 2.6 | 7.0 | 0.00 | 0.00 | 0.00 | 76 | 1015.7 |